Stuart, FL

4:09 PM EST on December 11, 2017 (GMT -0500)
Witham

Weather History for KSUA - March, 2013

Change the Weather History Date:

Friday, March 1, 2013

  Actual Average Record
Temperature  
Mean Temperature 60 °F -  
Max Temperature 64 °F 75 °F 87 °F (2003)
Min Temperature 55 °F 55 °F 38 °F (1968)
Degree Days  
Heating Degree Days 4    
Growing Degree Days 10 (Base 50)    
Moisture  
Dew Point 43 °F    
Average Humidity 54    
Maximum Humidity 68    
Minimum Humidity 32    
Precipitation  
Precipitation 0.00 in - - ()
Sea Level Pressure  
Sea Level Pressure 29.97 in    
Wind  
Wind Speed 8 mph (WNW)    
Max Wind Speed 12 mph    
Max Gust Speed 18 mph    
Visibility 10 miles    
Events      
Averages and records for this station are not official NWS values.
T = Trace of Precipitation, MM = Missing Value Source: NWS Daily Summary

Daily Weather History Graph

Daily Weather History Graph

Search for Another Location

Airport or City:

Trip Planner

Search our weather history database for the weather conditions in past years. The results will help you decide how hot, cold, wet, or windy it might be!

Date:

Astronomy

Mar. 01, 2013 Rise Set
Actual Time 6:44 AM EST 6:21 PM EST
Civil Twilight 6:21 AM EST 6:45 PM EST
Nautical Twilight 5:54 AM EST 7:12 PM EST
Astronomical Twilight 5:27 AM EST 7:39 PM EST
Moon 10:23 PM EST (3/1) 8:56 AM EST (3/1)
Length of Visible Light 12h 23m
Length of Day
11h 37m
Waning Gibbous, 83% of the Moon is Illuminated
Mar 1
Waning Gibbous
Mar 4
Last Quarter
Mar 11
New
Mar 19
First Quarter
Mar 27
Full

Hourly Weather History & Observations

Time (EST) Temp. Dew Point Humidity Pressure Visibility Wind Dir Wind Speed Gust Speed Precip Events Conditions
12:15 AM 62.6 °F 50.0 °F 63% 29.95 in 10.0 mi WNW 9.2 mph - N/A   Scattered Clouds
12:35 AM 62.6 °F 48.2 °F 59% 29.95 in 10.0 mi WNW 9.2 mph - N/A   Scattered Clouds
12:55 AM 62.6 °F 48.2 °F 59% 29.95 in 10.0 mi WNW 8.1 mph - N/A   Scattered Clouds
1:15 AM 60.8 °F 50.0 °F 68% 29.94 in 10.0 mi WNW 6.9 mph - N/A   Scattered Clouds
1:35 AM 62.6 °F 50.0 °F 63% 29.93 in 10.0 mi WNW 6.9 mph - N/A   Scattered Clouds
1:55 AM 62.6 °F 50.0 °F 63% 29.94 in 10.0 mi WNW 10.4 mph - N/A   Scattered Clouds
2:15 AM 62.6 °F 50.0 °F 63% 29.93 in 10.0 mi WNW 8.1 mph - N/A   Scattered Clouds
2:35 AM 62.6 °F 50.0 °F 63% 29.93 in 10.0 mi WNW 8.1 mph - N/A   Scattered Clouds
2:55 AM 62.6 °F 51.8 °F 68% 29.93 in 10.0 mi NW 10.4 mph - N/A   Scattered Clouds
3:15 AM 60.8 °F 50.0 °F 68% 29.93 in 10.0 mi NW 9.2 mph - N/A   Mostly Cloudy
3:35 AM 60.8 °F 46.4 °F 59% 29.94 in 10.0 mi NW 10.4 mph 18.4 mph N/A   Mostly Cloudy
4:15 AM 59.0 °F 46.4 °F 63% 29.93 in 10.0 mi NW 11.5 mph - N/A   Mostly Cloudy
4:35 AM 59.0 °F 46.4 °F 63% 29.94 in 10.0 mi NW 8.1 mph 16.1 mph N/A   Mostly Cloudy
5:15 AM 59.0 °F 44.6 °F 59% 29.94 in 10.0 mi NW 9.2 mph - N/A   Overcast
6:47 AM 59.0 °F 44.6 °F 59% 29.96 in 10.0 mi WNW 9.2 mph - N/A   Overcast
7:47 AM 59.0 °F 46.4 °F 63% 29.98 in 10.0 mi WNW 5.8 mph - N/A   Overcast
8:47 AM 59.0 °F 46.4 °F 63% 29.99 in 10.0 mi NW 8.1 mph - N/A   Mostly Cloudy
9:47 AM 60.8 °F 46.4 °F 59% 30.00 in 10.0 mi NNW 8.1 mph - N/A   Mostly Cloudy
10:47 AM 60.8 °F 44.6 °F 55% 30.00 in 10.0 mi NW 6.9 mph - N/A   Overcast
11:47 AM 62.6 °F 39.2 °F 42% 29.99 in 10.0 mi NNW 6.9 mph - N/A   Mostly Cloudy
12:47 PM 64.4 °F 33.8 °F 32% 29.98 in 7.0 mi NW 9.2 mph - N/A   Mostly Cloudy
1:47 PM 64.4 °F 35.6 °F 34% 29.95 in 7.0 mi NW 6.9 mph - N/A   Mostly Cloudy
2:55 PM 62.6 °F 37.4 °F 39% 29.94 in 7.0 mi WNW 6.9 mph - N/A   Mostly Cloudy
4:55 PM 62.6 °F 39.2 °F 42% 29.94 in 7.0 mi WSW 6.9 mph - N/A   Overcast
5:50 PM 62.6 °F 41.0 °F 45% 29.96 in 7.0 mi WNW 9.2 mph - N/A   Overcast
7:15 PM 59.0 °F 37.4 °F 45% 29.98 in 10.0 mi WNW 8.1 mph - N/A   Clear
7:35 PM 59.0 °F 37.4 °F 45% 29.98 in 10.0 mi WNW 8.1 mph - N/A   Scattered Clouds
7:55 PM 59.0 °F 37.4 °F 45% 29.99 in 10.0 mi WNW 10.4 mph - N/A   Clear
8:15 PM 59.0 °F 37.4 °F 45% 29.99 in 10.0 mi WNW 8.1 mph - N/A   Clear
8:35 PM 59.0 °F 37.4 °F 45% 29.99 in 10.0 mi WNW 5.8 mph - N/A   Clear
8:55 PM 59.0 °F 37.4 °F 45% 29.99 in 10.0 mi WNW 4.6 mph - N/A   Clear
9:15 PM 57.2 °F 41.0 °F 55% 30.00 in 10.0 mi West 6.9 mph - N/A   Clear
9:35 PM 57.2 °F 41.0 °F 55% 30.00 in 10.0 mi West 8.1 mph - N/A   Clear
9:55 PM 57.2 °F 39.2 °F 51% 30.01 in 10.0 mi West 6.9 mph - N/A   Clear
10:15 PM 57.2 °F 39.2 °F 51% 30.01 in 10.0 mi West 5.8 mph - N/A   Scattered Clouds
10:35 PM 57.2 °F 39.2 °F 51% 30.00 in 10.0 mi West 6.9 mph - N/A   Mostly Cloudy
10:55 PM 57.2 °F 39.2 °F 51% 30.00 in 10.0 mi West 8.1 mph - N/A   Overcast
11:15 PM 57.2 °F 41.0 °F 55% 30.00 in 10.0 mi WNW 9.2 mph - N/A   Mostly Cloudy
11:35 PM 57.2 °F 41.0 °F 55% 30.00 in 10.0 mi WNW 8.1 mph - N/A   Overcast
11:55 PM 55.4 °F 41.0 °F 58% 30.00 in 10.0 mi WNW 9.2 mph - N/A   Overcast